QPF
0.01 0.01 0.01 0.01 0.01 0.01 0.01 0.02 0.02 0.01 0.00 0.01 0.00 0.00 0.00 0.00 0.00 0.00 0.00 0.00 0.00 0.00 0.01 0.01 0.01 0.02 0.02 0.03 0.03 0.01 0.01 0.01 0.02 0.04 0.05 0.04 0.03 0.02 0.03 0.04 0.05 0.05 0.05 0.05
0.01 0.00 0.01 0.01 0.01 0.01 0.01 0.01 0.01 0.01 0.01 0.01 0.01 0.01 0.01 0.01 0.01 0.01 0.00 0.00 0.00 0.01 0.01 0.01 0.01 0.02 0.02 0.03 0.04 0.02 0.02 0.01 0.02 0.02 0.04 0.05 0.04 0.02 0.02 0.02 0.03 0.04 0.04 0.04
0.01 0.01 0.01 0.01 0.01 0.01 0.02 0.01 0.02 0.02 0.02 0.01 0.01 0.01 0.01 0.01 0.01 0.01 0.01 0.01 0.01 0.01 0.01 0.01 0.01 0.02 0.02 0.03 0.04 0.03 0.02 0.02 0.02 0.02 0.02 0.03 0.04 0.04 0.03 0.03 0.03 0.04 0.04 0.04
0.02 0.01 0.02 0.01 0.00 0.01 0.01 0.01 0.01 0.01 0.01 0.01 0.01 0.01 0.02 0.02 0.02 0.01 0.01 0.01 0.01 0.01 0.01 0.01 0.01 0.02 0.03 0.03 0.04 0.03 0.03 0.02 0.02 0.02 0.02 0.02 0.03 0.04 0.04 0.03 0.03 0.04 0.04 0.04
0.03 0.02 0.01 0.01 0.00 0.01 0.01 0.01 0.01 0.01 0.01 0.01 0.01 0.01 0.02 0.02 0.02 0.02 0.02 0.02 0.02 0.02 0.02 0.01 0.01 0.02 0.04 0.04 0.03 0.03 0.02 0.02 0.02 0.02 0.02 0.02 0.02 0.04 0.04 0.04 0.04 0.04 0.04 0.03
0.04 0.04 0.02 0.01 0.01 0.00 0.01 0.02 0.01 0.01 0.01 0.01 0.01 0.02 0.02 0.01 0.02 0.02 0.02 0.03 0.03 0.03 0.02 0.02 0.02 0.02 0.04 0.05 0.03 0.03 0.03 0.02 0.02 0.01 0.02 0.02 0.02 0.03 0.04 0.05 0.04 0.03 0.03 0.03
0.04 0.04 0.02 0.01 0.00 0.00 0.01 0.02 0.01 0.01 0.01 0.01 0.02 0.02 0.01 0.01 0.01 0.02 0.02 0.03 0.03 0.03 0.02 0.02 0.02 0.03 0.04 0.05 0.04 0.03 0.03 0.02 0.02 0.02 0.02 0.02 0.03 0.03 0.03 0.05 0.06 0.05 0.03 0.03
0.03 0.04 0.02 0.01 0.00 0.01 0.01 0.01 0.01 0.01 0.01 0.01 0.01 0.01 0.01 0.01 0.01 0.02 0.02 0.02 0.03 0.03 0.02 0.02 0.02 0.03 0.04 0.05 0.05 0.04 0.03 0.03 0.03 0.03 0.03 0.03 0.03 0.03 0.03 0.04 0.05 0.06 0.05 0.04
0.02 0.02 0.01 0.01 0.01 0.01 0.01 0.01 0.01 0.01 0.01 0.01 0.01 0.01 0.01 0.01 0.01 0.02 0.02 0.02 0.02 0.02 0.02 0.03 0.03 0.03 0.04 0.05 0.05 0.05 0.04 0.03 0.03 0.04 0.04 0.03 0.03 0.03 0.04 0.04 0.04 0.05 0.06 0.05
0.01 0.01 0.01 0.01 0.01 0.01 0.01 0.01 0.01 0.01 0.01 0.01 0.01 0.01 0.01 0.01 0.01 0.01 0.02 0.02 0.02 0.02 0.02 0.03 0.04 0.04 0.04 0.04 0.04 0.04 0.05 0.04 0.03 0.04 0.04 0.04 0.04 0.04 0.04 0.04 0.04 0.04 0.05 0.06
0.01 0.01 0.01 0.01 0.01 0.01 0.01 0.01 0.01 0.01 0.01 0.01 0.01 0.01 0.01 0.01 0.01 0.02 0.02 0.02 0.02 0.02 0.02 0.03 0.04 0.04 0.04 0.04 0.04 0.04 0.04 0.04 0.03 0.03 0.04 0.05 0.05 0.05 0.04 0.04 0.04 0.04 0.04 0.04
0.01 0.01 0.01 0.01 0.01 0.01 0.01 0.01 0.01 0.01 0.01 0.01 0.01 0.01 0.01 0.02 0.02 0.02 0.02 0.02 0.02 0.02 0.02 0.02 0.03 0.03 0.04 0.04 0.03 0.03 0.03 0.03 0.03 0.03 0.04 0.05 0.05 0.05 0.05 0.04 0.04 0.04 0.04 0.04
0.01 0.01 0.01 0.01 0.01 0.01 0.01 0.01 0.01 0.01 0.01 0.01 0.01 0.01 0.02 0.02 0.02 0.02 0.02 0.02 0.02 0.02 0.02 0.02 0.02 0.03 0.03 0.03 0.03 0.03 0.03 0.03 0.03 0.03 0.03 0.04 0.04 0.04 0.05 0.05 0.04 0.04 0.04 0.03
0.01 0.01 0.01 0.01 0.01 0.01 0.01 0.02 0.01 0.01 0.01 0.01 0.01 0.01 0.02 0.02 0.02 0.02 0.02 0.02 0.02 0.02 0.02 0.02 0.02 0.03 0.03 0.03 0.03 0.03 0.02 0.02 0.03 0.03 0.03 0.03 0.03 0.03 0.03 0.03 0.04 0.04 0.04 0.03
0.01 0.01 0.01 0.01 0.01 0.02 0.02 0.02 0.01 0.01 0.01 0.01 0.01 0.01 0.02 0.02 0.03 0.03 0.03 0.03 0.02 0.02 0.02 0.02 0.02 0.03 0.03 0.03 0.03 0.03 0.03 0.03 0.03 0.03 0.03 0.03 0.03 0.03 0.03 0.03 0.03 0.03 0.04 0.04
0.01 0.01 0.01 0.01 0.01 0.02 0.02 0.01 0.01 0.01 0.01 0.01 0.01 0.02 0.02 0.02 0.03 0.03 0.03 0.03 0.02 0.02 0.02 0.02 0.02 0.02 0.02 0.02 0.02 0.02 0.02 0.02 0.02 0.02 0.03 0.03 0.03 0.02 0.02 0.02 0.02 0.02 0.02 0.03
0.01 0.01 0.01 0.01 0.01 0.02 0.02 0.01 0.01 0.02 0.01 0.01 0.02 0.02 0.02 0.02 0.02 0.03 0.02 0.02 0.02 0.02 0.02 0.02 0.02 0.02 0.02 0.02 0.01 0.01 0.02 0.02 0.02 0.02 0.02 0.02 0.02 0.02 0.02 0.01 0.01 0.01 0.01 0.01
0.01 0.01 0.01 0.01 0.01 0.01 0.01 0.01 0.02 0.01 0.02 0.02 0.02 0.02 0.02 0.02 0.02 0.02 0.02 0.01 0.01 0.01 0.01 0.01 0.02 0.02 0.01 0.01 0.01 0.01 0.01 0.02 0.02 0.02 0.02 0.02 0.02 0.02 0.02 0.01 0.01 0.01 0.01 0.01
0.01 0.01 0.01 0.01 0.01 0.01 0.01 0.01 0.01 0.01 0.01 0.01 0.01 0.01 0.01 0.01 0.01 0.01 0.01 0.01 0.01 0.01 0.01 0.01 0.01 0.01 0.01 0.01 0.01 0.01 0.01 0.01 0.01 0.02 0.02 0.02 0.02 0.02 0.02 0.01 0.01 0.01 0.01 0.01
0.01 0.01 0.01 0.01 0.01 0.01 0.01 0.01 0.01 0.01 0.01 0.01 0.01 0.01 0.01 0.01 0.01 0.01 0.01 0.01 0.01 0.01 0.01 0.01 0.01 0.01 0.01 0.01 0.01 0.01 0.01 0.01 0.01 0.02 0.02 0.02 0.02 0.02 0.01 0.01 0.01 0.01 0.01 0.01
0.01 0.01 0.01 0.01 0.01 0.01 0.01 0.01 0.01 0.01 0.01 0.01 0.01 0.01 0.01 0.01 0.01 0.01 0.01 0.01 0.01 0.01 0.01 0.01 0.01 0.01 0.01 0.01 0.01 0.01 0.01 0.01 0.01 0.01 0.01 0.01 0.01 0.01 0.01 0.01 0.01 0.01 0.01 0.01
0.01 0.01 0.01 0.01 0.01 0.01 0.01 0.01 0.01 0.01 0.01 0.01 0.01 0.01 0.01 0.01 0.01 0.01 0.01 0.01 0.01 0.01 0.01 0.01 0.01 0.01 0.02 0.02 0.02 0.01 0.01 0.01 0.01 0.01 0.01 0.01 0.01 0.01 0.01 0.01 0.01 0.01 0.01 0.00
0.01 0.01 0.01 0.01 0.01 0.01 0.01 0.01 0.01 0.01 0.01 0.01 0.01 0.01 0.01 0.01 0.01 0.01 0.01 0.01 0.01 0.01 0.01 0.01 0.01 0.02 0.02 0.01 0.01 0.01 0.01 0.01 0.01 0.01 0.01 0.01 0.01 0.01 0.01 0.01 0.00 0.00 0.00 0.00
0.01 0.01 0.01 0.01 0.01 0.01 0.01 0.01 0.01 0.01 0.01 0.01 0.01 0.01 0.01 0.01 0.01 0.01 0.01 0.01 0.01 0.01 0.01 0.01 0.01 0.02 0.01 0.01 0.01 0.01 0.01 0.01 0.01 0.01 0.01 0.01 0.01 0.00 0.00 0.00 0.00 0.00 0.00 0.00
0.01 0.01 0.01 0.01 0.01 0.01 0.01 0.01 0.01 0.01 0.01 0.01 0.01 0.01 0.01 0.01 0.01 0.01 0.01 0.01 0.01 0.01 0.01 0.01 0.01 0.01 0.01 0.01 0.01 0.01 0.01 0.01 0.01 0.01 0.01 0.00 0.00 0.00 0.00 0.00 0.00 0.00 0.00 0.00
0.01 0.01 0.01 0.01 0.01 0.01 0.01 0.01 0.01 0.01 0.01 0.01 0.01 0.01 0.01 0.01 0.01 0.01 0.01 0.01 0.01 0.01 0.01 0.01 0.01 0.01 0.01 0.01 0.01 0.01 0.01 0.01 0.01 0.01 0.00 0.00 0.00 0.00 0.00 0.00 0.00 0.00 0.00 0.00
0.01 0.01 0.01 0.01 0.01 0.01 0.01 0.01 0.01 0.01 0.01 0.01 0.01 0.02 0.01 0.01 0.02 0.01 0.01 0.01 0.01 0.01 0.01 0.01 0.01 0.01 0.01 0.01 0.01 0.01 0.01 0.01 0.01 0.00 0.00 0.00 0.00 0.00 0.00 0.00 0.00 0.00 0.00 0.00
MSLP
1009.42 1008.55 1007.75 1007.01 1006.34 1005.72 1005.16 1004.67 1004.28 1004.05 1004.02 1004.24 1004.76 1005.59 1006.68 1008.00 1009.45 1010.94 1012.38 1013.66 1014.72 1015.52 1016.08 1016.40 1016.54 1016.55 1016.49 1016.39 1016.29 1016.21 1016.13 1016.07 1016.02 1015.98 1015.98 1016.01 1016.12 1016.33 1016.66 1017.10 1017.64 1018.27 1018.96 1019.65
1010.53 1009.68 1008.90 1008.20 1007.57 1007.02 1006.53 1006.12 1005.82 1005.66 1005.69 1005.95 1006.46 1007.23 1008.24 1009.42 1010.72 1012.05 1013.30 1014.43 1015.35 1016.05 1016.53 1016.82 1016.94 1016.96 1016.90 1016.81 1016.71 1016.60 1016.48 1016.35 1016.22 1016.09 1015.98 1015.92 1015.94 1016.07 1016.34 1016.74 1017.28 1017.91 1018.61 1019.32
1011.80 1011.04 1010.34 1009.72 1009.17 1008.69 1008.28 1007.95 1007.71 1007.60 1007.64 1007.89 1008.34 1009.02 1009.89 1010.91 1012.02 1013.14 1014.21 1015.15 1015.93 1016.52 1016.93 1017.18 1017.30 1017.32 1017.28 1017.21 1017.11 1016.98 1016.84 1016.66 1016.47 1016.26 1016.07 1015.93 1015.89 1015.96 1016.18 1016.56 1017.08 1017.71 1018.42 1019.15
1013.19 1012.58 1012.01 1011.51 1011.06 1010.67 1010.33 1010.06 1009.86 1009.76 1009.80 1009.99 1010.36 1010.91 1011.62 1012.44 1013.34 1014.25 1015.11 1015.88 1016.50 1016.98 1017.31 1017.52 1017.62 1017.66 1017.63 1017.58 1017.49 1017.37 1017.21 1017.01 1016.78 1016.53 1016.29 1016.11 1016.02 1016.06 1016.26 1016.61 1017.12 1017.75 1018.45 1019.18
1014.67 1014.23 1013.82 1013.45 1013.11 1012.81 1012.54 1012.31 1012.14 1012.03 1012.03 1012.15 1012.42 1012.82 1013.36 1013.99 1014.68 1015.38 1016.04 1016.62 1017.10 1017.46 1017.72 1017.88 1017.96 1017.99 1017.98 1017.94 1017.87 1017.76 1017.61 1017.42 1017.18 1016.92 1016.68 1016.49 1016.39 1016.42 1016.61 1016.96 1017.45 1018.06 1018.75 1019.46
1016.18 1015.92 1015.66 1015.42 1015.19 1014.97 1014.75 1014.55 1014.38 1014.25 1014.20 1014.24 1014.40 1014.67 1015.04 1015.50 1016.00 1016.51 1016.98 1017.41 1017.74 1018.00 1018.17 1018.28 1018.34 1018.36 1018.35 1018.33 1018.28 1018.20 1018.07 1017.90 1017.70 1017.47 1017.26 1017.09 1017.02 1017.07 1017.26 1017.60 1018.08 1018.67 1019.32 1019.99
1017.67 1017.56 1017.44 1017.31 1017.16 1016.98 1016.80 1016.60 1016.42 1016.26 1016.16 1016.14 1016.20 1016.36 1016.60 1016.90 1017.25 1017.60 1017.93 1018.21 1018.43 1018.59 1018.69 1018.74 1018.77 1018.78 1018.78 1018.77 1018.75 1018.70 1018.62 1018.50 1018.35 1018.19 1018.03 1017.93 1017.90 1017.99 1018.20 1018.54 1019.00 1019.54 1020.14 1020.74
1019.09 1019.10 1019.06 1018.99 1018.88 1018.73 1018.54 1018.34 1018.13 1017.95 1017.81 1017.73 1017.72 1017.80 1017.95 1018.15 1018.38 1018.62 1018.84 1019.02 1019.15 1019.23 1019.27 1019.29 1019.29 1019.29 1019.29 1019.30 1019.30 1019.30 1019.27 1019.22 1019.14 1019.06 1018.99 1018.96 1019.00 1019.13 1019.36 1019.70 1020.13 1020.62 1021.15 1021.67
1020.38 1020.45 1020.45 1020.40 1020.29 1020.12 1019.92 1019.69 1019.45 1019.24 1019.07 1018.96 1018.92 1018.95 1019.05 1019.19 1019.36 1019.53 1019.69 1019.81 1019.88 1019.92 1019.93 1019.92 1019.90 1019.90 1019.91 1019.93 1019.97 1020.00 1020.03 1020.05 1020.06 1020.06 1020.08 1020.14 1020.24 1020.42 1020.67 1021.00 1021.39 1021.83 1022.27 1022.70
1021.47 1021.56 1021.57 1021.50 1021.35 1021.15 1020.91 1020.64 1020.38 1020.14 1019.96 1019.84 1019.79 1019.81 1019.90 1020.03 1020.18 1020.33 1020.46 1020.56 1020.62 1020.64 1020.64 1020.63 1020.61 1020.61 1020.63 1020.67 1020.73 1020.81 1020.89 1020.97 1021.05 1021.13 1021.23 1021.36 1021.52 1021.74 1022.01 1022.32 1022.68 1023.05 1023.42 1023.75
1022.34 1022.42 1022.40 1022.29 1022.10 1021.85 1021.56 1021.27 1020.98 1020.74 1020.55 1020.44 1020.41 1020.45 1020.56 1020.70 1020.87 1021.03 1021.17 1021.28 1021.35 1021.39 1021.40 1021.39 1021.39 1021.40 1021.43 1021.49 1021.58 1021.68 1021.80 1021.93 1022.06 1022.21 1022.37 1022.55 1022.76 1023.01 1023.28 1023.58 1023.90 1024.21 1024.50 1024.76
1022.97 1023.02 1022.97 1022.82 1022.59 1022.31 1021.99 1021.67 1021.38 1021.15 1020.98 1020.89 1020.89 1020.97 1021.10 1021.28 1021.47 1021.66 1021.83 1021.97 1022.06 1022.13 1022.16 1022.18 1022.20 1022.23 1022.28 1022.35 1022.45 1022.57 1022.71 1022.87 1023.04 1023.22 1023.42 1023.64 1023.87 1024.13 1024.41 1024.70 1024.98 1025.25 1025.49 1025.68
1023.36 1023.41 1023.34 1023.18 1022.93 1022.63 1022.31 1022.00 1021.72 1021.51 1021.37 1021.32 1021.35 1021.46 1021.63 1021.83 1022.05 1022.27 1022.46 1022.62 1022.75 1022.84 1022.90 1022.95 1022.99 1023.04 1023.10 1023.19 1023.30 1023.42 1023.57 1023.74 1023.92 1024.12 1024.34 1024.58 1024.83 1025.10 1025.37 1025.65 1025.91 1026.15 1026.35 1026.50
1023.56 1023.62 1023.57 1023.42 1023.19 1022.91 1022.62 1022.34 1022.10 1021.93 1021.83 1021.82 1021.89 1022.02 1022.21 1022.42 1022.65 1022.87 1023.07 1023.24 1023.38 1023.49 1023.57 1023.64 1023.71 1023.77 1023.85 1023.95 1024.06 1024.19 1024.34 1024.50 1024.69 1024.90 1025.12 1025.36 1025.62 1025.89 1026.17 1026.44 1026.69 1026.92 1027.10 1027.25
1023.61 1023.71 1023.70 1023.60 1023.42 1023.19 1022.96 1022.74 1022.56 1022.44 1022.40 1022.42 1022.52 1022.66 1022.85 1023.06 1023.27 1023.47 1023.65 1023.81 1023.94 1024.05 1024.14 1024.22 1024.30 1024.38 1024.48 1024.58 1024.70 1024.84 1024.99 1025.16 1025.34 1025.55 1025.77 1026.02 1026.28 1026.56 1026.84 1027.11 1027.36 1027.58 1027.77 1027.92
1023.55 1023.72 1023.77 1023.73 1023.62 1023.47 1023.31 1023.17 1023.07 1023.02 1023.03 1023.09 1023.20 1023.35 1023.52 1023.70 1023.87 1024.03 1024.17 1024.30 1024.40 1024.49 1024.58 1024.66 1024.75 1024.85 1024.96 1025.08 1025.22 1025.36 1025.52 1025.70 1025.89 1026.10 1026.33 1026.58 1026.85 1027.13 1027.42 1027.69 1027.95 1028.18 1028.38 1028.54
1023.44 1023.65 1023.76 1023.79 1023.75 1023.69 1023.62 1023.56 1023.54 1023.56 1023.62 1023.73 1023.86 1024.00 1024.15 1024.29 1024.41 1024.51 1024.60 1024.67 1024.73 1024.79 1024.86 1024.95 1025.05 1025.16 1025.30 1025.45 1025.61 1025.78 1025.96 1026.16 1026.37 1026.59 1026.83 1027.09 1027.36 1027.65 1027.94 1028.22 1028.48 1028.72 1028.92 1029.09
1023.27 1023.51 1023.66 1023.74 1023.77 1023.77 1023.78 1023.80 1023.86 1023.95 1024.07 1024.21 1024.36 1024.50 1024.63 1024.73 1024.81 1024.86 1024.89 1024.90 1024.93 1024.96 1025.02 1025.10 1025.21 1025.35 1025.52 1025.70 1025.90 1026.11 1026.33 1026.55 1026.78 1027.02 1027.28 1027.55 1027.82 1028.11 1028.40 1028.68 1028.94 1029.18 1029.38 1029.54
1023.07 1023.30 1023.45 1023.54 1023.59 1023.64 1023.70 1023.79 1023.92 1024.07 1024.25 1024.43 1024.61 1024.77 1024.89 1024.97 1025.01 1025.02 1025.01 1025.00 1024.99 1025.01 1025.06 1025.15 1025.28 1025.45 1025.66 1025.88 1026.13 1026.38 1026.64 1026.89 1027.15 1027.41 1027.68 1027.95 1028.22 1028.51 1028.78 1029.05 1029.30 1029.52 1029.71 1029.86
1022.82 1023.00 1023.10 1023.16 1023.21 1023.26 1023.35 1023.48 1023.66 1023.87 1024.10 1024.34 1024.56 1024.75 1024.88 1024.97 1025.01 1025.01 1024.99 1024.96 1024.94 1024.96 1025.02 1025.13 1025.29 1025.50 1025.75 1026.02 1026.31 1026.61 1026.90 1027.18 1027.46 1027.73 1028.00 1028.26 1028.53 1028.79 1029.04 1029.28 1029.51 1029.71 1029.87 1030.01
1022.54 1022.61 1022.63 1022.62 1022.62 1022.65 1022.74 1022.89 1023.11 1023.37 1023.66 1023.95 1024.23 1024.46 1024.64 1024.76 1024.83 1024.85 1024.84 1024.83 1024.83 1024.86 1024.95 1025.09 1025.29 1025.54 1025.82 1026.14 1026.46 1026.79 1027.11 1027.41 1027.69 1027.96 1028.22 1028.46 1028.69 1028.92 1029.14 1029.35 1029.54 1029.71 1029.85 1029.96
1022.20 1022.15 1022.06 1021.95 1021.88 1021.87 1021.94 1022.10 1022.34 1022.65 1023.00 1023.35 1023.70 1023.99 1024.23 1024.41 1024.53 1024.59 1024.62 1024.65 1024.68 1024.76 1024.88 1025.06 1025.29 1025.57 1025.89 1026.24 1026.59 1026.93 1027.25 1027.55 1027.82 1028.07 1028.29 1028.50 1028.70 1028.88 1029.06 1029.23 1029.38 1029.52 1029.64 1029.73
1021.83 1021.65 1021.43 1021.23 1021.08 1021.02 1021.07 1021.23 1021.50 1021.85 1022.25 1022.67 1023.08 1023.45 1023.76 1024.00 1024.18 1024.30 1024.39 1024.46 1024.55 1024.66 1024.82 1025.04 1025.30 1025.61 1025.95 1026.31 1026.67 1027.01 1027.32 1027.60 1027.84 1028.05 1028.22 1028.38 1028.52 1028.66 1028.79 1028.91 1029.03 1029.15 1029.25 1029.33
1021.45 1021.14 1020.82 1020.53 1020.32 1020.22 1020.26 1020.42 1020.71 1021.10 1021.55 1022.03 1022.50 1022.93 1023.31 1023.61 1023.85 1024.03 1024.18 1024.30 1024.43 1024.59 1024.79 1025.03 1025.32 1025.65 1026.00 1026.36 1026.70 1027.02 1027.30 1027.54 1027.73 1027.89 1028.00 1028.10 1028.18 1028.26 1028.35 1028.43 1028.52 1028.62 1028.71 1028.79
1021.07 1020.67 1020.27 1019.92 1019.68 1019.57 1019.60 1019.79 1020.10 1020.53 1021.02 1021.54 1022.06 1022.54 1022.97 1023.32 1023.61 1023.84 1024.02 1024.19 1024.36 1024.55 1024.77 1025.04 1025.34 1025.67 1026.01 1026.35 1026.67 1026.95 1027.19 1027.38 1027.51 1027.60 1027.66 1027.69 1027.71 1027.73 1027.76 1027.81 1027.88 1027.95 1028.03 1028.12
1020.73 1020.27 1019.84 1019.47 1019.23 1019.13 1019.19 1019.41 1019.75 1020.21 1020.73 1021.28 1021.83 1022.33 1022.78 1023.16 1023.47 1023.72 1023.93 1024.12 1024.31 1024.52 1024.76 1025.03 1025.33 1025.65 1025.98 1026.29 1026.57 1026.81 1026.99 1027.12 1027.18 1027.21 1027.19 1027.15 1027.11 1027.07 1027.06 1027.07 1027.10 1027.16 1027.23 1027.31
1020.45 1019.98 1019.56 1019.22 1019.01 1018.96 1019.06 1019.31 1019.69 1020.17 1020.70 1021.26 1021.81 1022.31 1022.75 1023.12 1023.43 1023.68 1023.90 1024.09 1024.28 1024.50 1024.73 1025.00 1025.29 1025.59 1025.89 1026.16 1026.40 1026.58 1026.70 1026.76 1026.76 1026.70 1026.61 1026.50 1026.39 1026.30 1026.23 1026.19 1026.19 1026.22 1026.27 1026.34
Thickness
5406 5411 5409 5406 5408 5407 5403 5405 5407 5417 5415 5415 5410 5406 5404 5402 5401 5399 5396 5395 5394 5393 5393 5394 5397 5399 5401 5404 5407 5410 5412 5413 5415 5417 5418 5419 5420 5420 5420 5421 5421 5421 5420 5421
5390 5401 5401 5400 5402 5401 5400 5401 5400 5402 5402 5404 5400 5398 5394 5391 5389 5387 5385 5383 5383 5382 5382 5383 5386 5388 5390 5393 5396 5399 5400 5402 5403 5405 5406 5406 5407 5407 5408 5408 5408 5408 5408 5408
5385 5392 5389 5390 5392 5392 5391 5390 5390 5390 5393 5391 5387 5385 5381 5379 5377 5376 5374 5372 5371 5371 5371 5373 5374 5376 5378 5382 5385 5387 5388 5389 5391 5392 5393 5393 5394 5395 5395 5395 5395 5395 5395 5395
5372 5374 5371 5390 5389 5387 5381 5380 5380 5381 5382 5379 5377 5374 5371 5370 5367 5364 5363 5362 5361 5360 5361 5362 5363 5365 5367 5370 5373 5374 5375 5376 5378 5379 5380 5381 5381 5381 5382 5382 5382 5382 5382 5382
5365 5366 5376 5384 5379 5372 5367 5366 5370 5369 5370 5369 5364 5363 5363 5360 5357 5354 5352 5351 5350 5350 5351 5351 5352 5354 5357 5358 5360 5362 5363 5364 5366 5367 5368 5368 5368 5368 5369 5370 5370 5369 5369 5368
5356 5358 5366 5375 5366 5364 5360 5356 5362 5361 5359 5354 5353 5353 5354 5349 5346 5344 5342 5341 5340 5340 5341 5342 5343 5344 5346 5347 5349 5351 5352 5353 5354 5355 5356 5356 5357 5356 5356 5357 5357 5356 5356 5355
5345 5349 5353 5357 5353 5355 5351 5355 5352 5350 5349 5344 5341 5341 5338 5336 5335 5333 5332 5331 5331 5330 5331 5332 5333 5334 5335 5336 5338 5339 5340 5341 5341 5342 5343 5344 5344 5344 5343 5343 5343 5343 5342 5341
5340 5341 5348 5344 5342 5340 5343 5343 5342 5341 5339 5335 5332 5329 5327 5325 5323 5323 5322 5321 5321 5320 5320 5320 5321 5322 5323 5324 5325 5326 5327 5328 5328 5329 5330 5330 5330 5330 5330 5330 5329 5328 5327 5326
5341 5345 5346 5337 5335 5333 5333 5332 5332 5331 5330 5327 5322 5318 5317 5315 5314 5313 5312 5311 5311 5310 5309 5309 5310 5311 5311 5312 5313 5314 5314 5315 5315 5316 5316 5317 5317 5317 5316 5315 5315 5314 5313 5312
5333 5339 5337 5332 5329 5327 5325 5324 5323 5322 5320 5318 5313 5311 5308 5307 5305 5303 5302 5302 5301 5299 5298 5298 5298 5299 5299 5300 5300 5301 5302 5302 5303 5303 5303 5302 5302 5303 5302 5301 5300 5299 5299 5298
5324 5328 5327 5327 5323 5321 5318 5316 5314 5312 5311 5308 5305 5302 5299 5297 5294 5293 5293 5292 5291 5290 5289 5288 5287 5288 5288 5289 5289 5289 5289 5289 5289 5289 5289 5288 5288 5287 5288 5288 5287 5286 5284 5284
5324 5324 5319 5320 5317 5313 5309 5306 5304 5302 5300 5298 5296 5293 5290 5287 5285 5283 5282 5282 5281 5279 5278 5276 5276 5276 5276 5276 5277 5276 5276 5276 5275 5275 5275 5275 5274 5273 5273 5274 5274 5273 5273 5272
5317 5315 5312 5311 5307 5303 5300 5297 5295 5293 5291 5288 5286 5284 5281 5278 5276 5274 5272 5271 5270 5268 5267 5265 5264 5264 5264 5264 5265 5264 5263 5263 5263 5262 5262 5261 5261 5260 5259 5259 5259 5259 5259 5259
5309 5305 5302 5301 5296 5292 5290 5287 5285 5282 5281 5279 5276 5273 5271 5268 5266 5264 5263 5261 5259 5258 5256 5254 5253 5252 5252 5253 5253 5252 5251 5251 5250 5248 5248 5247 5247 5246 5245 5245 5244 5243 5244 5245
5299 5295 5292 5289 5285 5283 5280 5277 5274 5272 5269 5267 5265 5263 5260 5258 5256 5255 5253 5251 5250 5248 5246 5244 5243 5241 5241 5241 5241 5240 5240 5238 5237 5236 5235 5234 5234 5233 5232 5232 5231 5230 5230 5230
5288 5286 5282 5279 5276 5273 5269 5267 5264 5262 5259 5257 5255 5253 5251 5249 5247 5245 5243 5242 5240 5239 5236 5234 5233 5232 5231 5230 5229 5229 5228 5228 5226 5225 5223 5223 5222 5221 5220 5219 5218 5217 5216 5215
5277 5276 5273 5269 5267 5264 5261 5258 5256 5253 5250 5247 5245 5243 5241 5240 5238 5236 5234 5232 5230 5229 5227 5225 5224 5223 5222 5220 5219 5218 5217 5216 5216 5214 5212 5211 5210 5209 5208 5207 5206 5205 5203 5202
5270 5268 5265 5261 5258 5255 5252 5249 5247 5244 5241 5239 5236 5234 5232 5231 5229 5227 5224 5222 5221 5219 5218 5216 5215 5214 5212 5211 5209 5208 5206 5204 5203 5202 5200 5199 5199 5198 5196 5195 5193 5192 5190 5189
5261 5258 5255 5252 5249 5246 5243 5240 5237 5235 5232 5230 5228 5226 5224 5223 5221 5218 5215 5213 5211 5209 5208 5207 5207 5204 5202 5201 5200 5197 5195 5193 5192 5190 5189 5189 5187 5185 5184 5182 5181 5179 5177 5176
5250 5248 5245 5241 5239 5235 5233 5230 5228 5225 5223 5221 5219 5217 5215 5213 5211 5209 5206 5204 5203 5201 5199 5198 5197 5194 5193 5191 5190 5187 5185 5183 5181 5179 5178 5176 5175 5174 5172 5170 5168 5166 5165 5163
5239 5237 5234 5231 5227 5225 5223 5221 5218 5216 5213 5212 5210 5208 5206 5203 5202 5199 5197 5195 5193 5192 5191 5190 5187 5185 5183 5182 5180 5177 5175 5173 5171 5169 5167 5166 5164 5163 5161 5159 5157 5155 5153 5151
5228 5225 5223 5220 5217 5214 5212 5211 5209 5206 5204 5201 5200 5198 5195 5193 5191 5190 5188 5186 5185 5184 5182 5180 5178 5177 5175 5173 5170 5168 5166 5163 5161 5159 5157 5155 5153 5152 5149 5147 5145 5143 5142 5140
5219 5216 5213 5210 5208 5205 5203 5201 5198 5196 5194 5192 5190 5187 5185 5183 5182 5180 5178 5177 5176 5175 5173 5170 5169 5168 5167 5163 5160 5158 5156 5153 5151 5149 5147 5145 5143 5141 5139 5137 5135 5133 5131 5129
5210 5207 5204 5202 5199 5196 5193 5191 5189 5187 5184 5182 5180 5178 5175 5173 5171 5170 5169 5168 5167 5165 5163 5161 5160 5159 5157 5153 5150 5148 5146 5144 5142 5140 5137 5135 5133 5131 5129 5127 5125 5123 5121 5119
5201 5198 5195 5193 5190 5188 5185 5182 5179 5177 5175 5173 5171 5169 5167 5165 5162 5161 5159 5158 5157 5155 5152 5151 5150 5148 5145 5142 5140 5139 5137 5135 5133 5131 5129 5126 5124 5122 5120 5117 5115 5113 5111 5109
5192 5190 5188 5186 5183 5181 5178 5175 5172 5169 5167 5165 5162 5160 5158 5156 5154 5152 5149 5148 5146 5145 5142 5140 5138 5137 5135 5133 5131 5129 5128 5126 5123 5121 5119 5117 5115 5112 5110 5108 5105 5103 5102 5100
5184 5182 5180 5178 5176 5173 5171 5168 5165 5162 5160 5157 5154 5152 5150 5147 5145 5142 5140 5138 5136 5134 5132 5131 5129 5127 5126 5124 5122 5120 5118 5116 5114 5112 5110 5108 5106 5103 5101 5099 5097 5095 5093 5092